�������l�o���
Date,Time,MP-1(��Sv/h),MP-2(��Sv/h),MP-3(��Sv/h),MP-4(��Sv/h),MP-5(��Sv/h),MP-6(��Sv/h),MP-7(��Sv/h),MP-8(��Sv/h),����,����(m/s),���J
2020/04/16,00:00,0.688,0.988,0.651,1.190,0.846,0.394,0.689,0.655,�k�k��,4.8,��
2020/04/16,00:10,0.687,0.987,0.650,1.193,0.847,0.393,0.689,0.654,�k��,4.8,��
2020/04/16,00:20,0.688,0.991,0.649,1.192,0.844,0.395,0.689,0.653,�k��,6.3,��
2020/04/16,00:30,0.687,0.987,0.649,1.194,0.848,0.395,0.688,0.654,�k�k��,6.3,��
2020/04/16,00:40,0.684,0.990,0.650,1.192,0.847,0.393,0.688,0.654,�k�k��,7.2,��
2020/04/16,00:50,0.687,0.989,0.651,1.190,0.846,0.394,0.687,0.654,�k�k��,7.9,��
2020/04/16,01:00,0.687,0.990,0.651,1.192,0.849,0.394,0.687,0.652,�k�k��,6.7,��
2020/04/16,01:10,0.687,0.989,0.648,1.192,0.848,0.392,0.687,0.654,�k�k��,6.9,��
2020/04/16,01:20,0.687,0.991,0.648,1.192,0.848,0.394,0.687,0.654,�k�k��,6.3,��
2020/04/16,01:30,0.688,0.989,0.650,1.192,0.848,0.394,0.685,0.652,�k�k��,6.4,��
2020/04/16,01:40,0.686,0.991,0.651,1.192,0.847,0.393,0.686,0.657,�k�k��,7.1,��
2020/04/16,01:50,0.686,0.990,0.650,1.193,0.848,0.395,0.687,0.654,�k�k��,7.2,��
2020/04/16,02:00,0.686,0.987,0.650,1.191,0.847,0.393,0.686,0.654,�k�k��,6.0,��
2020/04/16,02:10,0.687,0.988,0.649,1.193,0.847,0.394,0.686,0.654,�k�k��,6.7,��
2020/04/16,02:20,0.690,0.988,0.650,1.193,0.846,0.394,0.687,0.653,�k�k��,6.2,��
2020/04/16,02:30,0.687,0.989,0.651,1.191,0.847,0.393,0.688,0.655,�k�k��,6.3,��
2020/04/16,02:40,0.687,0.988,0.651,1.193,0.847,0.393,0.685,0.655,�k�k��,6.3,��
2020/04/16,02:50,0.689,0.989,0.649,1.191,0.847,0.394,0.686,0.654,�k�k��,5.3,��
2020/04/16,03:00,0.687,0.990,0.650,1.191,0.849,0.395,0.687,0.653,�k�k��,5.8,��
2020/04/16,03:10,0.688,0.990,0.650,1.191,0.844,0.395,0.687,0.655,�k�k��,6.6,��
2020/04/16,03:20,0.687,0.989,0.650,1.193,0.846,0.394,0.687,0.655,�k�k��,6.4,��
2020/04/16,03:30,0.688,0.990,0.648,1.189,0.849,0.394,0.687,0.654,�k�k��,6.5,��
2020/04/16,03:40,0.686,0.988,0.651,1.191,0.846,0.392,0.687,0.654,�k�k��,5.7,��
2020/04/16,03:50,0.686,0.990,0.650,1.191,0.847,0.394,0.688,0.654,�k�k��,6.2,��
2020/04/16,04:00,0.686,0.989,0.648,1.191,0.846,0.393,0.687,0.653,�k�k��,4.9,��
2020/04/16,04:10,0.686,0.989,0.648,1.192,0.846,0.393,0.685,0.653,�k�k��,5.1,��
2020/04/16,04:20,0.687,0.989,0.650,1.194,0.847,0.392,0.688,0.655,�k�k��,5.5,�L
2020/04/16,04:30,0.689,0.991,0.650,1.194,0.848,0.394,0.687,0.654,�k�k��,5.4,�L
2020/04/16,04:40,0.685,0.991,0.650,1.191,0.848,0.393,0.687,0.653,�k�k��,6.1,�L
2020/04/16,04:50,0.687,0.991,0.649,1.192,0.849,0.392,0.687,0.654,�k�k��,5.6,�L
2020/04/16,05:00,0.684,0.989,0.649,1.190,0.849,0.394,0.687,0.655,�k�k��,6.1,�L
2020/04/16,05:10,0.689,0.989,0.650,1.193,0.847,0.395,0.687,0.654,�k�k��,4.0,�L
2020/04/16,05:20,0.688,0.989,0.649,1.191,0.848,0.393,0.686,0.654,�k�k��,5.5,�L
2020/04/16,05:30,0.688,0.989,0.651,1.191,0.847,0.394,0.687,0.655,�k�k��,5.6,�L
2020/04/16,05:40,0.688,0.989,0.650,1.192,0.848,0.393,0.687,0.654,�k�k��,6.3,�L
2020/04/16,05:50,0.687,0.988,0.651,1.191,0.849,0.393,0.687,0.654,�k�k��,6.4,��
2020/04/16,06:00,0.686,0.990,0.649,1.191,0.846,0.393,0.689,0.654,�k�k��,5.1,��
2020/04/16,06:10,0.687,0.989,0.649,1.192,0.847,0.394,0.689,0.656,�k�k��,4.8,��
2020/04/16,06:20,0.688,0.986,0.651,1.193,0.847,0.394,0.689,0.655,�k�k��,4.7,��
2020/04/16,06:30,0.687,0.989,0.649,1.191,0.848,0.394,0.687,0.654,�k�k��,6.5,�L
2020/04/16,06:40,0.686,0.988,0.650,1.193,0.847,0.394,0.687,0.653,�k�k��,7.1,�L
2020/04/16,06:50,0.688,0.991,0.648,1.191,0.848,0.391,0.687,0.652,�k�k��,5.7,�L
2020/04/16,07:00,0.686,0.989,0.649,1.191,0.846,0.392,0.688,0.654,�k,5.5,�L
2020/04/16,07:10,0.688,0.986,0.650,1.192,0.849,0.393,0.688,0.654,�k,5.5,�L
2020/04/16,07:20,0.685,0.987,0.650,1.192,0.845,0.392,0.685,0.653,�k�k��,3.6,�L
2020/04/16,07:30,0.686,0.988,0.648,1.192,0.847,0.394,0.688,0.655,�k,3.5,�L
2020/04/16,07:40,0.687,0.990,0.650,1.193,0.845,0.391,0.687,0.656,�k,4.4,�L
2020/04/16,07:50,0.686,0.987,0.650,1.192,0.848,0.393,0.688,0.656,�k�k��,4.5,��
2020/04/16,08:00,0.686,0.987,0.650,1.191,0.846,0.393,0.688,0.654,�k�k��,6.3,��
2020/04/16,08:10,0.686,0.987,0.648,1.190,0.846,0.393,0.688,0.653,�k�k��,7.2,��
2020/04/16,08:20,0.686,0.986,0.649,1.193,0.846,0.392,0.686,0.655,�k�k��,7.0,��
2020/04/16,08:30,0.688,0.988,0.649,1.189,0.847,0.393,0.688,0.654,�k�k��,6.5,��
2020/04/16,08:40,0.686,0.986,0.648,1.191,0.849,0.391,0.684,0.654,�k�k��,5.6,��
2020/04/16,08:50,0.686,0.988,0.651,1.193,0.846,0.392,0.687,0.654,�k�k��,5.3,��
2020/04/16,09:00,0.686,0.985,0.651,1.193,0.847,0.392,0.686,0.655,�k�k��,5.6,��
2020/04/16,09:10,0.686,0.985,0.651,1.192,0.848,0.392,0.687,0.655,�k,6.2,��
2020/04/16,09:20,0.687,0.983,0.652,1.193,0.850,0.393,0.685,0.651,�k,4.2,��
2020/04/16,09:30,0.687,0.982,0.652,1.192,0.849,0.392,0.687,0.654,�k�k��,5.5,��
2020/04/16,09:40,0.686,0.979,0.652,1.190,0.847,0.392,0.687,0.653,�k�k��,5.6,��
2020/04/16,09:50,0.684,0.983,0.652,1.191,0.847,0.392,0.688,0.654,�k�k��,5.2,��
2020/04/16,10:00,0.687,0.981,0.652,1.191,0.846,0.393,0.686,0.653,�k�k��,5.9,��
2020/04/16,10:10,0.686,0.981,0.650,1.191,0.848,0.391,0.687,0.654,�k�k��,5.3,��
2020/04/16,10:20,0.689,0.980,0.651,1.193,0.848,0.390,0.688,0.655,�k�k��,5.8,��
2020/04/16,10:30,0.689,0.983,0.651,1.193,0.849,0.392,0.686,0.655,�k�k��,5.4,��
2020/04/16,10:40,0.686,0.982,0.652,1.191,0.848,0.394,0.685,0.653,�k�k��,4.6,��
2020/04/16,10:50,0.684,0.981,0.651,1.189,0.848,0.393,0.687,0.655,�k,4.5,��
2020/04/16,11:00,0.687,0.981,0.651,1.192,0.848,0.392,0.687,0.654,�k�k��,5.8,��
2020/04/16,11:10,0.686,0.983,0.651,1.191,0.850,0.393,0.685,0.655,�k�k��,5.9,��
2020/04/16,11:20,0.688,0.985,0.650,1.192,0.849,0.393,0.687,0.653,�k�k��,5.8,��
2020/04/16,11:30,0.688,0.985,0.648,1.190,0.849,0.393,0.687,0.655,�k�k��,5.7,��
2020/04/16,11:40,0.689,0.985,0.651,1.190,0.848,0.393,0.687,0.655,�k�k��,6.2,��
2020/04/16,11:50,0.688,0.987,0.651,1.192,0.847,0.392,0.686,0.655,�k��,6.1,��
2020/04/16,12:00,0.689,0.987,0.651,1.194,0.849,0.392,0.686,0.653,�k��,6.5,��
2020/04/16,12:10,0.687,0.989,0.649,1.194,0.850,0.392,0.686,0.656,�k�k��,6.9,��
2020/04/16,12:20,0.687,0.990,0.648,1.193,0.850,0.392,0.684,0.655,�k�k��,6.3,��
2020/04/16,12:30,0.687,0.989,0.650,1.190,0.848,0.394,0.686,0.653,�k�k��,6.8,��
2020/04/16,12:40,0.688,0.986,0.651,1.193,0.849,0.392,0.686,0.655,�k��,6.7,��
2020/04/16,12:50,0.687,0.987,0.649,1.192,0.852,0.392,0.685,0.654,�k�k��,6.5,��
2020/04/16,13:00,0.686,0.987,0.651,1.194,0.848,0.394,0.686,0.655,�k��,6.9,��
2020/04/16,13:10,0.687,0.986,0.648,1.193,0.850,0.393,0.686,0.655,�k��,6.9,��
2020/04/16,13:20,0.689,0.986,0.649,1.194,0.850,0.394,0.688,0.655,�k��,7.5,��
2020/04/16,13:30,0.688,0.983,0.650,1.196,0.850,0.394,0.687,0.655,�k��,7.2,��
2020/04/16,13:40,0.688,0.989,0.649,1.194,0.848,0.392,0.686,0.655,�k��,6.4,��
2020/04/16,13:50,0.686,0.986,0.651,1.196,0.851,0.392,0.688,0.656,�k��,6.5,��
2020/04/16,14:00,0.689,0.987,0.651,1.194,0.850,0.393,0.687,0.656,�k��,6.4,��
2020/04/16,14:10,0.688,0.986,0.651,1.194,0.852,0.394,0.687,0.655,�k��,6.5,��
2020/04/16,14:20,0.687,0.988,0.651,1.193,0.849,0.393,0.686,0.656,�k��,5.8,��
2020/04/16,14:30,0.686,0.987,0.650,1.193,0.849,0.393,0.686,0.656,�k��,6.6,��
2020/04/16,14:40,0.687,0.986,0.653,1.196,0.848,0.393,0.687,0.656,�k��,6.6,��
2020/04/16,14:50,0.687,0.987,0.649,1.193,0.846,0.393,0.685,0.653,�k��,6.8,��
2020/04/16,15:00,0.687,0.988,0.651,1.191,0.847,0.393,0.687,0.654,�k��,7.4,��
2020/04/16,15:10,0.688,0.987,0.650,1.192,0.848,0.394,0.688,0.654,�k��,7.7,��
2020/04/16,15:20,0.690,0.990,0.651,1.194,0.847,0.392,0.686,0.654,�k��,7.6,��
2020/04/16,15:30,0.689,0.988,0.651,1.193,0.849,0.393,0.686,0.653,�k��,7.1,��
2020/04/16,15:40,0.689,0.993,0.651,1.195,0.847,0.393,0.687,0.653,�k��,7.8,��
2020/04/16,15:50,0.689,0.990,0.652,1.192,0.846,0.393,0.686,0.653,�k��,7.1,��
2020/04/16,16:00,0.689,0.990,0.649,1.196,0.850,0.393,0.685,0.655,�k��,7.3,��
2020/04/16,16:10,0.687,0.993,0.650,1.195,0.849,0.393,0.686,0.655,�k��,7.5,��
2020/04/16,16:20,0.690,0.992,0.652,1.194,0.848,0.393,0.687,0.654,�k��,7.8,��
2020/04/16,16:30,0.688,0.993,0.650,1.193,0.849,0.395,0.684,0.654,�k��,8.0,��
2020/04/16,16:40,0.687,0.992,0.650,1.192,0.850,0.395,0.686,0.655,�k��,7.5,��
2020/04/16,16:50,0.690,0.990,0.651,1.192,0.852,0.393,0.687,0.655,�k��,8.1,��
2020/04/16,17:00,0.688,0.989,0.651,1.194,0.850,0.393,0.685,0.654,�k��,8.1,��
2020/04/16,17:10,0.689,0.993,0.651,1.196,0.850,0.393,0.686,0.655,�k��,7.5,��
2020/04/16,17:20,0.687,0.992,0.648,1.193,0.851,0.393,0.687,0.656,�k��,7.3,��
2020/04/16,17:30,0.689,0.992,0.650,1.196,0.852,0.394,0.688,0.654,�k��,8.2,��
2020/04/16,17:40,0.689,0.990,0.649,1.195,0.852,0.394,0.688,0.654,�k��,8.4,��
2020/04/16,17:50,0.688,0.991,0.650,1.195,0.852,0.394,0.687,0.654,�k��,7.4,��
2020/04/16,18:00,0.687,0.993,0.651,1.195,0.851,0.394,0.685,0.654,�k��,8.0,��
2020/04/16,18:10,0.688,0.992,0.649,1.194,0.852,0.393,0.688,0.654,�k��,6.7,��
2020/04/16,18:20,0.687,0.992,0.650,1.192,0.852,0.394,0.687,0.654,�k��,6.7,��
2020/04/16,18:30,0.687,0.992,0.650,1.195,0.853,0.392,0.687,0.655,�k��,6.7,��
2020/04/16,18:40,0.688,0.993,0.650,1.193,0.853,0.392,0.687,0.656,�k��,6.7,��
2020/04/16,18:50,0.688,0.992,0.650,1.194,0.853,0.393,0.686,0.654,�k��,5.8,��
2020/04/16,19:00,0.687,0.993,0.650,1.194,0.852,0.393,0.687,0.654,�k��,6.3,��
2020/04/16,19:10,0.688,0.995,0.649,1.196,0.850,0.393,0.688,0.655,���k��,6.0,��
2020/04/16,19:20,0.688,0.992,0.648,1.196,0.851,0.393,0.688,0.654,�k��,6.5,��
2020/04/16,19:30,0.687,0.994,0.651,1.193,0.852,0.393,0.689,0.654,�k��,6.3,��
2020/04/16,19:40,0.688,0.993,0.649,1.195,0.851,0.393,0.686,0.653,���k��,5.7,��
2020/04/16,19:50,0.687,0.994,0.648,1.196,0.851,0.392,0.688,0.654,���k��,5.4,��
2020/04/16,20:00,0.687,0.994,0.652,1.195,0.851,0.393,0.688,0.654,���k��,5.4,��
2020/04/16,20:10,0.688,0.994,0.650,1.196,0.851,0.394,0.687,0.655,���k��,5.1,��
2020/04/16,20:20,0.688,0.995,0.650,1.194,0.852,0.394,0.687,0.654,�k��,5.6,��
2020/04/16,20:30,0.688,0.993,0.650,1.195,0.849,0.392,0.687,0.654,�k��,5.1,��
2020/04/16,20:40,0.687,0.994,0.650,1.194,0.851,0.393,0.687,0.654,���k��,5.0,��
2020/04/16,20:50,0.687,0.992,0.649,1.194,0.849,0.393,0.687,0.655,�k��,4.3,��
2020/04/16,21:00,0.688,0.994,0.650,1.194,0.852,0.393,0.688,0.654,���k��,5.3,��
2020/04/16,21:10,0.687,0.994,0.651,1.194,0.853,0.392,0.687,0.655,�k��,4.2,��
2020/04/16,21:20,0.688,0.992,0.650,1.195,0.854,0.392,0.687,0.653,���k��,4.0,��
2020/04/16,21:30,0.686,0.991,0.650,1.194,0.853,0.394,0.686,0.653,���k��,3.5,��
2020/04/16,21:40,0.686,0.993,0.649,1.195,0.849,0.391,0.688,0.654,���k��,3.9,��
2020/04/16,21:50,0.687,0.993,0.652,1.195,0.852,0.393,0.688,0.653,���k��,3.6,��
2020/04/16,22:00,0.687,0.992,0.651,1.195,0.850,0.392,0.688,0.654,���k��,3.2,��
2020/04/16,22:10,0.686,0.996,0.651,1.193,0.852,0.394,0.688,0.653,���k��,3.2,��
2020/04/16,22:20,0.689,0.994,0.650,1.197,0.852,0.393,0.687,0.653,���k��,3.3,��
2020/04/16,22:30,0.689,0.992,0.650,1.196,0.851,0.393,0.687,0.654,���k��,3.5,��
2020/04/16,22:40,0.687,0.995,0.649,1.196,0.853,0.394,0.689,0.653,���k��,4.2,�L
2020/04/16,22:50,0.688,0.993,0.650,1.194,0.852,0.392,0.688,0.654,��,3.9,�L
2020/04/16,23:00,0.687,0.994,0.650,1.196,0.851,0.393,0.687,0.654,��,3.5,�L
2020/04/16,23:10,0.689,0.994,0.651,1.196,0.852,0.394,0.687,0.654,���쓌,2.6,��
2020/04/16,23:20,0.687,0.995,0.649,1.194,0.851,0.393,0.687,0.654,���쓌,3.0,�L
2020/04/16,23:30,0.688,0.996,0.651,1.196,0.852,0.393,0.688,0.654,��,2.9,�L
2020/04/16,23:40,0.686,0.996,0.651,1.194,0.852,0.393,0.687,0.654,��,3.8,�L
2020/04/16,23:50,0.687,0.995,0.651,1.196,0.852,0.393,0.686,0.654,���쓌,3.3,�L
